Location: Prairie Dale
(45.6972°N, 104.5033°W)
Time: 13:31:44
(UTC+00:00)

DX 1 - Pass Details

Date: 07 July 2022
Orbit: 616 x 630 km, 98.4° (Epoch: 18 August)

Event Time Altitude Azimuth Distance (km) Brightness Sun altitude
Rises 05:00:16 0° 5° (N) 2,930 ? -16.3°
Reaches altitude 10° 05:02:38 10° 356° (N) 2,016 ? -16.5°
Maximum altitude 05:06:34 33° 292° (WNW) 1,052 ? -16.8°
Drops below altitude 10° 05:10:27 10° 229° (SW) 1,995 ? -17.1°
Enters shadow 05:12:11 - 221° (SW) 2,656 ? -17.2°
